DW6193 Weather Reports


Display with metric or nautical units.
time (UTC)temp
F
wind
direction
speed
MPH
gust
MPH
rain 1hr
in
rain 24hr
in
rain mn
in
humidity
%
barometer
mb
20260504174027 63 329 2.0 12.0 0.00 0.00 0.00 1014.8
20260504173530 61 141 1.0 12.0 0.00 0.00 0.00 1014.9
20260504173037 59 359 4.0 11.0 0.00 0.00 0.00 1014.7
20260504172524 60 99 1.0 13.0 0.00 0.00 0.00 1014.8
20260504172027 57 0 5.0 13.0 0.00 0.00 0.00 1014.8
20260504171537 59 298 3.0 11.0 0.00 0.00 0.00 1014.9
20260504171027 59 227 2.0 10.0 0.00 0.00 0.00 1014.8
20260504170526 59 55 3.0 10.0 0.00 0.00 0.00 1014.8
20260504151027 56 141 2.0 10.0 0.00 0.00 0.00 1014.3
20260504150525 57 234 2.0 10.0 0.00 0.00 0.00 1014.2
20260504141028 56 281 1.0 4.0 0.00 0.00 0.00 1013.9
20260504140526 57 120 0.0 5.0 0.00 0.00 0.00 1013.8
20260504130524 56 261 7.0 15.0 0.00 0.00 0.00 1012.5
20260504110526 63 124 3.0 10.0 0.00 0.00 0.00 1010.9
20260504100530 67 128 2.0 8.0 0.00 0.00 0.00 1010.5
20260504081541 70 109 9.0 16.0 0.00 0.00 0.00 1009.9
20260504081027 70 121 11.0 16.0 0.00 0.00 0.00 1009.7
20260504080527 70 122 11.0 16.0 0.00 0.00 0.00 1009.7
20260504050527 76 164 2.0 3.0 0.00 0.00 0.00 1009.2
20260504045526 76 227 1.0 4.0 0.00 0.00 0.00 1009.1
20260504045032 76 195 1.0 3.0 0.00 0.00 0.00 1009.2
20260504044547 76 131 1.0 5.0 0.00 0.00 0.00 1009.1
20260504044025 77 157 0.0 6.0 0.00 0.00 0.00 1009.0
20260504043527 77 290 1.0 6.0 0.00 0.00 0.00 1008.9
20260504043058 77 265 1.0 5.0 0.00 0.00 0.00 1009.0
20260504042526 78 283 1.0 7.0 0.00 0.00 0.00 1008.9
20260504042026 79 311 2.0 7.0 0.00 0.00 0.00 1008.8
20260504041541 79 285 2.0 7.0 0.00 0.00 0.00 1008.9
20260504041026 78 268 2.0 5.0 0.00 0.00 0.00 1008.8
20260504040525 79 341 2.0 7.0 0.00 0.00 0.00 1008.7
20260504040045 79 0 1.0 7.0 0.00 0.00 0.00 1008.7
20260504035526 79 283 2.0 7.0 0.00 0.00 0.00 1008.5
20260504035027 79 311 2.0 5.0 0.00 0.00 0.00 1008.5
20260504034546 79 12 1.0 7.0 0.00 0.00 0.00 1008.4
20260504034031 80 28 2.0 7.0 0.00 0.00 0.00 1008.5
20260504033527 79 290 2.0 5.0 0.00 0.00 0.00 1008.5
20260504033046 79 278 2.0 5.0 0.00 0.00 0.00 1008.3
20260504032527 80 276 2.0 5.0 0.00 0.00 0.00 1008.3
20260504032027 80 288 3.0 6.0 0.00 0.00 0.00 1008.2
20260504031551 80 254 2.0 6.0 0.00 0.00 0.00 1008.1
20260504031025 81 288 4.0 6.0 0.00 0.00 0.00 1008.2
20260504030525 80 240 2.0 6.0 0.00 0.00 0.00 1008.3
20260504030055 81 248 2.0 6.0 0.00 0.00 0.00 1008.2
20260504025527 82 292 2.0 6.0 0.00 0.00 0.00 1008.2
20260504025026 82 210 2.0 6.0 0.00 0.00 0.00 1008.2
20260504024540 83 259 3.0 6.0 0.00 0.00 0.00 1008.2
20260504024026 83 302 2.0 6.0 0.00 0.00 0.00 1008.2
20260504023528 84 334 1.0 6.0 0.00 0.00 0.00 1008.2
20260504023044 84 0 1.0 8.0 0.00 0.00 0.00 1008.2
20260504022527 84 59 3.0 8.0 0.00 0.00 0.00 1008.2
20260504022024 84 322 2.0 7.0 0.00 0.00 0.00 1008.1
20260504021545 84 299 2.0 7.0 0.00 0.00 0.00 1008.2
20260504021025 85 240 2.0 7.0 0.00 0.00 0.00 1008.3
20260504020527 86 261 2.0 7.0 0.00 0.00 0.00 1008.3
20260504020039 86 64 2.0 7.0 0.00 0.00 0.00 1008.3
20260504015527 87 99 1.0 4.0 0.00 0.00 0.00 1008.3
20260504015027 87 268 1.0 3.0 0.00 0.00 0.00 1008.3
20260504014540 88 0 1.0 3.0 0.00 0.00 0.00 1008.3
20260504014026 89 295 0.0 5.0 0.00 0.00 0.00 1008.3
20260504013528 89 141 0.0 5.0 0.00 0.00 0.00 1008.5
20260504013044 90 201 1.0 5.0 0.00 0.00 0.00 1008.3
20260504012527 91 277 0.0 4.0 0.00 0.00 0.00 1008.3
20260504012026 92 0 0.0 3.0 0.00 0.00 0.00 1008.4
20260504011543 94 39 0.0 3.0 0.00 0.00 0.00 1008.5
20260504011030 100 147 0.0 3.0 0.00 0.00 0.00 1008.5
20260504010527 106 0 0.0 3.0 0.00 0.00 0.00 1008.5
20260504010054 108 0 0.0 2.0 0.00 0.00 0.00 1008.6
20260504005527 108 141 0.0 3.0 0.00 0.00 0.00 1008.7
20260504005027 109 141 0.0 3.0 0.00 0.00 0.00 1008.7
20260504004544 109 99 0.0 4.0 0.00 0.00 0.00 1008.7
20260504004026 105 355 1.0 7.0 0.00 0.00 0.00 1008.7
20260504003526 104 141 2.0 7.0 0.00 0.00 0.00 1008.6
20260504003038 103 110 1.0 5.0 0.00 0.00 0.00 1008.8
20260504002526 102 276 1.0 6.0 0.00 0.00 0.00 1008.8
20260504002029 100 108 2.0 6.0 0.00 0.00 0.00 1008.8
20260504001540 103 112 1.0 10.0 0.00 0.00 0.00 1008.7
20260504001028 100 64 2.0 12.0 0.00 0.00 0.00 1008.8
20260504000527 99 338 3.0 12.0 0.00 0.00 0.00 1008.8
20260504000049 97 54 5.0 15.0 0.00 0.00 0.00 1008.8
20260503235527 97 151 5.0 15.0 0.00 0.00 0.00 1008.7
20260503235027 98 44 5.0 16.0 0.00 0.00 0.00 1008.8
20260503234541 98 340 3.0 17.0 0.00 0.00 0.00 1008.9
20260503234026 97 116 5.0 17.0 0.00 0.00 0.00 1008.8
20260503233525 97 351 5.0 16.0 0.00 0.00 0.00 1008.9
20260503233039 98 319 4.0 12.0 0.00 0.00 0.00 1008.9
20260503232526 98 16 4.0 13.0 0.00 0.00 0.00 1009.0
20260503232025 98 126 3.0 13.0 0.00 0.00 0.00 1009.2
20260503231539 99 113 3.0 11.0 0.00 0.00 0.00 1009.1
20260503231028 97 329 4.0 11.0 0.00 0.00 0.00 1009.2
20260503230528 97 108 4.0 11.0 0.00 0.00 0.00 1009.3
20260503230103 97 347 3.0 12.0 0.00 0.00 0.00 1009.4
20260503225527 96 111 5.0 14.0 0.00 0.00 0.00 1009.5
20260503225027 97 70 5.0 14.0 0.00 0.00 0.00 1009.7
20260503224543 97 99 5.0 14.0 0.00 0.00 0.00 1009.7
20260503224027 97 299 4.0 16.0 0.00 0.00 0.00 1009.7
20260503223531 96 119 3.0 16.0 0.00 0.00 0.00 1009.7
20260503223049 96 166 3.0 17.0 0.00 0.00 0.00 1009.9
20260503222526 94 57 6.0 17.0 0.00 0.00 0.00 1010.0
20260503222027 95 108 6.0 20.0 0.00 0.00 0.00 1010.0
20260503221546 94 61 10.0 20.0 0.00 0.00 0.00 1010.1
20260503221030 95 162 5.0 20.0 0.00 0.00 0.00 1010.0
20260503220526 94 49 5.0 20.0 0.00 0.00 0.00 1010.3
20260503220050 94 319 7.0 20.0 0.00 0.00 0.00 1010.3
20260503215525 94 55 7.0 19.0 0.00 0.00 0.00 1010.4
20260503215025 95 101 6.0 19.0 0.00 0.00 0.00 1010.4
20260503214553 97 131 4.0 12.0 0.00 0.00 0.00 1010.6
20260503214026 98 33 4.0 12.0 0.00 0.00 0.00 1010.7
20260503213528 100 302 1.0 8.0 0.00 0.00 0.00 1010.8
20260503213040 99 120 2.0 8.0 0.00 0.00 0.00 1010.7
20260503212527 100 0 1.0 5.0 0.00 0.00 0.00 1010.8
20260503212027 98 252 0.0 11.0 0.00 0.00 0.00 1010.7
20260503211538 96 136 4.0 11.0 0.00 0.00 0.00 1010.9
20260503211026 96 39 3.0 9.0 0.00 0.00 0.00 1010.9
20260503210527 96 286 1.0 5.0 0.00 0.00 0.00 1011.0
20260503210038 95 161 1.0 5.0 0.00 0.00 0.00 1011.0
20260503205525 93 124 1.0 7.0 0.00 0.00 0.00 1011.2
20260503205031 91 250 1.0 11.0 0.00 0.00 0.00 1011.2
20260503204545 89 243 1.0 11.0 0.00 0.00 0.00 1011.2
20260503204026 88 99 3.0 11.0 0.00 0.00 0.00 1011.4
20260503203526 87 99 2.0 6.0 0.00 0.00 0.00 1011.3
20260503203039 91 149 1.0 6.0 0.00 0.00 0.00 1011.4
20260503202528 93 0 1.0 7.0 0.00 0.00 0.00 1011.4
20260503202026 92 99 1.0 7.0 0.00 0.00 0.00 1011.5
20260503201544 92 114 0.0 7.0 0.00 0.00 0.00 1011.5
20260503201028 91 126 2.0 8.0 0.00 0.00 0.00 1011.5
20260503200527 88 106 2.0 8.0 0.00 0.00 0.00 1011.6
20260503200038 88 355 1.0 9.0 0.00 0.00 0.00 1011.7
20260503195526 88 311 1.0 9.0 0.00 0.00 0.00 1011.7
20260503195026 86 120 2.0 12.0 0.00 0.00 0.00 1011.8
20260503194545 86 305 2.0 12.0 0.00 0.00 0.00 1011.9
20260503194026 85 101 4.0 15.0 0.00 0.00 0.00 1011.9
20260503193526 86 129 6.0 15.0 0.00 0.00 0.00 1011.9
20260503193047 86 0 4.0 17.0 0.00 0.00 0.00 1012.1
20260503192525 86 122 4.0 17.0 0.00 0.00 0.00 1012.1
20260503192029 85 77 8.0 17.0 0.00 0.00 0.00 1012.2
20260503191539 86 80 2.0 13.0 0.00 0.00 0.00 1012.3
20260503191026 86 106 4.0 13.0 0.00 0.00 0.00 1012.3
20260503190525 84 31 3.0 15.0 0.00 0.00 0.00 1012.4
20260503190045 85 105 4.0 15.0 0.00 0.00 0.00 1012.4
20260503185525 85 41 6.0 16.0 0.00 0.00 0.00 1012.4
20260503185029 84 49 9.0 16.0 0.00 0.00 0.00 1012.5
20260503184542 85 302 5.0 14.0 0.00 0.00 0.00 1012.5
20260503184026 85 0 2.0 15.0 0.00 0.00 0.00 1012.7
20260503183527 82 344 7.0 20.0 0.00 0.00 0.00 1012.7
20260503183052 84 110 2.0 20.0 0.00 0.00 0.00 1012.7
20260503182526 82 110 7.0 17.0 0.00 0.00 0.00 1012.7
20260503182025 81 285 11.0 16.0 0.00 0.00 0.00 1012.7
20260503181557 82 128 7.0 14.0 0.00 0.00 0.00 1012.8
20260503181026 81 137 8.0 15.0 0.00 0.00 0.00 1012.8
20260503180530 80 110 7.0 19.0 0.00 0.00 0.00 1012.9
20260503180047 80 103 10.0 19.0 0.00 0.00 0.00 1012.8
20260503175529 79 121 9.0 22.0 0.00 0.00 0.00 1012.8
20260503175031 77 80 12.0 22.0 0.00 0.00 0.00 1013.0
20260503174538 77 114 10.0 23.0 0.00 0.00 0.00 1012.9